Simultaneous Nadir Overpasses (SNOs) Predictions

Prediction of SNOs between AQUA and TERRA Satellite Orbit:

Table of predicted SNOs for the next 14.0 days since TLE Epoch: 3/4/2023
Index Date (AQUA) Time (AQUA) Lat,Lon (AQUA) SZA (AQUA ) Date (TERRA) Time (TERRA) Lat,Lon (TERRA) SZA (TERRA ) Distance(km) Time Diff (sec)
1 03/12/2023 23:53:03 73.40, 179.14 76.49 03/12/2023 23:54:07 73.37,-177.86 76.40 95.55 64
2 03/13/2023 00:42:27 -73.39, -13.19 103.54 03/13/2023 00:43:32 -73.34, -10.27 103.65 92.96 65
3 03/13/2023 01:31:50 73.23, 154.79 76.28 03/13/2023 01:32:56 73.16, 157.03 76.17 72.59 66
4 03/13/2023 02:21:14 -73.22, -37.54 103.75 03/13/2023 02:22:21 -73.13, -35.38 103.88 70.28 67
5 03/13/2023 03:10:36 73.01, 130.54 76.02 03/13/2023 03:11:45 72.95, 131.93 75.93 45.89 69
6 03/13/2023 04:00:00 -73.00, -61.80 104.01 03/13/2023 04:01:09 -72.97, -60.38 104.06 46.32 69
7 03/13/2023 04:49:23 72.83, 106.17 75.81 03/13/2023 04:50:33 72.79, 106.94 75.75 25.82 70
8 03/13/2023 05:38:47 -72.83, -86.17 104.21 03/13/2023 05:39:58 -72.76, -85.47 104.29 23.99 71
9 03/13/2023 06:28:10 72.66, 81.79 75.61 03/13/2023 06:29:21 72.64, 81.96 75.57 6.07 71
10 03/13/2023 07:17:34 -72.65,-110.54 104.42 03/13/2023 07:18:46 -72.61,-110.45 104.47 5.93 72
11 03/13/2023 08:06:59 72.59, 57.21 75.51 03/13/2023 08:08:07 72.59, 57.17 75.50 1.69 68
12 03/13/2023 08:56:23 -72.59,-135.12 104.52 03/13/2023 08:57:31 -72.61,-135.13 104.50 2.64 68
13 03/13/2023 09:45:49 72.58, 32.53 75.47 03/13/2023 09:46:52 72.59, 32.49 75.47 1.57 63
14 03/13/2023 10:35:14 -72.63,-159.90 104.50 03/13/2023 10:36:16 -72.61,-159.82 104.52 3.30 62
15 03/13/2023 11:24:39 72.57, 7.85 75.43 03/13/2023 11:25:37 72.59, 7.81 75.45 2.91 58
16 03/13/2023 12:14:04 -72.61, 175.41 104.54 03/13/2023 12:15:01 -72.61, 175.50 104.55 2.92 57
17 03/13/2023 13:03:30 72.61, -16.93 75.44 03/13/2023 13:04:22 72.59, -16.88 75.42 2.47 52
18 03/13/2023 13:52:54 -72.60, 150.73 104.59 03/13/2023 13:53:46 -72.62, 150.82 104.57 3.54 52
19 03/13/2023 14:42:20 72.59, -41.62 75.40 03/13/2023 14:43:07 72.59, -41.56 75.40 1.85 47
20 03/13/2023 15:31:44 -72.58, 126.05 104.63 03/13/2023 15:32:32 -72.57, 126.03 104.65 2.11 48
21 03/13/2023 16:21:10 72.58, -66.30 75.36 03/13/2023 16:21:52 72.60, -66.25 75.37 2.62 42
22 03/13/2023 17:10:34 -72.57, 101.37 104.67 03/13/2023 17:11:17 -72.57, 101.35 104.67 0.59 43
23 03/13/2023 18:00:00 72.57, -90.98 75.32 03/13/2023 18:00:38 72.54, -91.03 75.29 2.77 38
24 03/13/2023 18:49:24 -72.56, 76.68 104.71 03/13/2023 18:50:02 -72.57, 76.67 104.70 1.55 38
25 03/13/2023 19:38:50 72.55,-115.67 75.28 03/13/2023 19:39:23 72.55,-115.71 75.27 1.68 33
26 03/13/2023 20:28:14 -72.54, 52.00 104.75 03/13/2023 20:28:47 -72.57, 51.98 104.72 3.24 33
27 03/13/2023 21:17:39 72.54,-140.35 75.24 03/13/2023 21:18:07 72.55,-140.40 75.24 1.97 28
28 03/13/2023 22:07:04 -72.58, 27.22 104.74 03/13/2023 22:07:31 -72.57, 27.30 104.75 2.88 27
29 03/13/2023 22:56:29 72.53,-165.03 75.19 03/13/2023 22:56:52 72.55,-165.08 75.22 3.28 23
30 03/13/2023 23:45:54 -72.57, 2.53 104.78 03/13/2023 23:46:16 -72.58, 2.61 104.77 2.78 22
31 03/14/2023 00:35:20 72.57, 170.18 75.21 03/14/2023 00:35:37 72.55, 170.23 75.19 2.18 17
32 03/14/2023 01:24:44 -72.56, -22.15 104.82 03/14/2023 01:25:02 -72.53, -22.17 104.85 3.55 18
33 03/14/2023 02:14:10 72.55, 145.50 75.17 03/14/2023 02:14:22 72.56, 145.55 75.17 1.68 12
34 03/14/2023 03:03:34 -72.54, -46.84 104.86 03/14/2023 03:03:47 -72.53, -46.85 104.88 1.92 13
35 03/14/2023 03:53:00 72.54, 120.81 75.13 03/14/2023 03:53:07 72.56, 120.86 75.14 2.56 7
36 03/14/2023 04:42:24 -72.53, -71.52 104.90 03/14/2023 04:42:32 -72.53, -71.54 104.90 0.69 8
37 03/14/2023 05:31:50 72.53, 96.13 75.09 03/14/2023 05:31:53 72.51, 96.08 75.07 2.87 3
38 03/14/2023 06:21:14 -72.52, -96.20 104.94 03/14/2023 06:21:17 -72.53, -96.22 104.93 1.70 3
39 03/14/2023 07:10:40 72.51, 71.45 75.05 03/14/2023 07:10:38 72.51, 71.40 75.04 1.83 2
40 03/14/2023 08:00:04 -72.50,-120.89 104.98 03/14/2023 08:00:02 -72.53,-120.91 104.95 3.28 2
41 03/14/2023 08:49:30 72.50, 46.76 75.01 03/14/2023 08:49:23 72.51, 46.71 75.02 1.96 7
42 03/14/2023 09:38:55 -72.54,-145.67 104.97 03/14/2023 09:38:47 -72.53,-145.59 104.98 2.79 8
43 03/14/2023 10:28:20 72.49, 22.08 74.97 03/14/2023 10:28:08 72.51, 22.03 74.99 3.11 12
44 03/14/2023 11:17:45 -72.53,-170.36 105.01 03/14/2023 11:17:32 -72.54,-170.28 105.00 2.64 13
45 03/14/2023 12:07:11 72.53, -2.71 74.98 03/14/2023 12:06:53 72.51, -2.66 74.96 2.35 18
46 03/14/2023 12:56:35 -72.52, 164.96 105.05 03/14/2023 12:56:17 -72.54, 165.04 105.03 3.39 18
47 03/14/2023 13:46:01 72.52, -27.39 74.94 03/14/2023 13:45:38 72.51, -27.34 74.94 1.60 23
48 03/14/2023 14:35:25 -72.51, 140.28 105.09 03/14/2023 14:35:03 -72.49, 140.25 105.11 2.22 22
49 03/14/2023 15:24:51 72.50, -52.08 74.90 03/14/2023 15:24:23 72.52, -52.03 74.91 2.17 28
50 03/14/2023 16:14:15 -72.49, 115.59 105.13 03/14/2023 16:13:48 -72.49, 115.57 105.13 0.89 27
51 03/14/2023 17:03:41 72.49, -76.76 74.86 03/14/2023 17:03:09 72.46, -76.81 74.84 3.36 32
52 03/14/2023 17:53:05 -72.48, 90.91 105.17 03/14/2023 17:52:33 -72.49, 90.88 105.16 1.31 32
53 03/14/2023 18:42:31 72.48,-101.45 74.82 03/14/2023 18:41:54 72.47,-101.50 74.81 2.16 37
54 03/14/2023 19:31:55 -72.47, 66.22 105.21 03/14/2023 19:31:18 -72.49, 66.20 105.18 2.77 37
55 03/14/2023 20:21:21 72.47,-126.13 74.78 03/14/2023 20:20:39 72.47,-126.18 74.78 1.72 42
56 03/14/2023 21:10:46 -72.51, 41.44 105.20 03/14/2023 21:10:03 -72.49, 41.51 105.21 3.07 43
57 03/14/2023 22:00:11 72.45,-150.82 74.74 03/14/2023 21:59:24 72.47,-150.87 74.76 2.46 47
58 03/14/2023 22:49:36 -72.50, 16.75 105.24 03/14/2023 22:48:48 -72.50, 16.83 105.23 2.59 48
59 03/14/2023 23:39:02 72.49,-175.60 74.75 03/14/2023 23:38:09 72.47,-175.55 74.73 3.09 53
60 03/15/2023 00:28:26 -72.48, -7.93 105.28 03/15/2023 00:27:33 -72.50, -7.86 105.26 2.96 53
61 03/15/2023 01:17:52 72.48, 159.71 74.71 03/15/2023 01:16:54 72.47, 159.76 74.71 1.98 58
62 03/15/2023 02:07:16 -72.47, -32.62 105.31 03/15/2023 02:06:19 -72.44, -32.64 105.34 3.04 57
63 03/15/2023 02:56:42 72.47, 135.03 74.67 03/15/2023 02:55:39 72.47, 135.08 74.68 1.71 63
64 03/15/2023 03:46:06 -72.46, -57.31 105.35 03/15/2023 03:45:04 -72.45, -57.33 105.36 1.58 62
65 03/15/2023 04:35:32 72.46, 110.34 74.63 03/15/2023 04:34:24 72.47, 110.39 74.66 2.55 68
66 03/15/2023 05:24:56 -72.45, -81.99 105.39 03/15/2023 05:23:49 -72.45, -82.01 105.39 0.66 67
67 03/15/2023 06:14:22 72.45, 85.65 74.60 03/15/2023 06:13:10 72.42, 85.61 74.58 3.00 72
68 03/15/2023 07:03:46 -72.43,-106.68 105.43 03/15/2023 07:02:34 -72.45,-106.70 105.41 1.70 72
69 03/15/2023 07:53:09 72.27, 61.26 74.39 03/15/2023 07:51:58 72.26, 60.63 74.40 21.43 71
70 03/15/2023 08:42:34 -72.32,-131.17 105.58 03/15/2023 08:41:22 -72.29,-131.67 105.60 17.30 72
71 03/15/2023 09:31:56 72.10, 36.87 74.19 03/15/2023 09:30:46 72.10, 35.66 74.21 41.22 70
72 03/15/2023 10:21:20 -72.09,-155.47 105.84 03/15/2023 10:20:10 -72.13,-156.64 105.78 40.33 70
73 03/15/2023 11:10:42 71.87, 12.56 73.93 03/15/2023 11:09:35 71.89, 10.60 73.98 67.67 67
74 03/15/2023 12:00:07 -71.92,-179.87 106.05 03/15/2023 11:58:59 -71.92, 178.30 106.01 63.10 68
75 03/15/2023 12:49:29 71.70, -11.85 73.72 03/15/2023 12:48:24 71.67, -14.45 73.75 90.81 65
76 03/15/2023 13:38:54 -71.75, 155.72 106.25 03/15/2023 13:37:48 -71.70, 153.25 106.24 86.25 66



Historial Predications of SNOs between AQUA and TERRA
